[[{"header":{"parameterUnit":"m.s-1","parameterCategory":1,"la1":30.2991,"la2":30.254,"lo1":-89.0895,"lo2":-89.0444,"dy":0.0017,"dx":0.0017,"nx":28,"ny":28,"refTime":"2023-10-12T21:00:00:Z","depth":0,"parameterNumber":2,"parameterNumberName":"U-component_of_WINDS"},"data":[0,0,0,0,0,0,0,0,0,0,0,0,0,0,0,0,0,0,0,0,0,0,0,0,0,0,0,0,0,0,0,0,0,0,0,0,0,0,0,0,0,0,0,0,0,0,0,0,0,0,0,0,0,0,0,0,0,0,3.7323,3.7324,0,3.7447,3.7449,3.745,3.7421,3.7418,3.7416,3.7414,3.7542,3.7548,3.7553,0,0,0,0,0,0,0,0,0,0,0,0,0,3.7063,3.7068,3.7323,3.7324,3.7326,3.7447,3.7449,3.745,3.7421,3.7418,3.7415,3.7413,3.7541,3.7547,3.7554,0,0,0,0,0,0,0,0,0,0,0,0,0,3.7181,3.707,3.7323,3.7326,3.7327,3.7447,3.7449,3.7451,3.7422,3.7418,3.7415,3.7411,3.7538,3.7547,3.7555,3.7679,0,0,3.7581,3.7584,0,0,0,0,0,0,0,0,3.7174,3.719,3.7324,3.7326,3.7328,3.7415,3.7404,3.7527,3.7423,3.7386,3.7414,3.7409,3.7503,3.7514,3.7545,3.7685,3.769,3.7582,3.7587,3.759,3.7593,0,0,0,0,0,0,0,3.7166,3.7185,3.7372,3.7326,3.7328,3.7322,3.7335,3.7428,3.7463,3.7389,3.7387,3.7402,3.7503,3.7537,3.7548,3.7692,3.7581,3.7589,3.7594,3.7597,3.7943,3.7947,0,0,0,0,0,0,3.7156,3.7178,3.7368,3.7376,3.7241,3.733,3.7344,3.7391,3.7462,3.7469,3.7405,3.74,3.7524,3.7538,3.7552,3.7704,3.759,3.7598,3.7603,3.7939,3.7944,3.7948,0,0,0,0,0,0,3.715,3.7173,3.7363,3.7277,3.73,3.7338,3.7391,3.7395,3.7429,3.7474,3.7481,3.7433,3.7522,3.7541,3.7648,3.7708,3.7602,3.761,3.7934,3.7941,3.7946,3.8008,0,0,0,0,0,0,3.7143,3.7171,3.7218,3.7278,3.7305,3.7456,3.7394,3.74,3.7443,3.7438,3.7502,3.7509,3.7521,3.7636,3.7657,3.7718,3.7616,3.7929,3.7937,3.7944,3.8,3.8015,3.8028,0,0,0,0,0,3.7134,3.723,3.722,3.7243,3.7364,3.7459,3.7475,3.7486,3.7448,3.7496,3.7526,3.7507,3.7698,3.7647,3.767,3.7735,3.7925,3.7935,3.7944,3.7994,3.8012,3.8027,0,0,0,0,0,0,3.7175,3.7238,3.7228,3.7346,3.7398,3.7454,3.7515,3.7504,3.7568,3.7561,3.7572,3.7587,3.7697,3.7727,3.7669,3.786,3.7806,3.7821,3.7837,3.7854,3.7868,3.7859,3.7623,0,0,0,0,0,3.7198,3.727,3.7321,3.742,3.7447,3.7476,3.7518,3.7523,3.7577,3.7599,3.7636,3.769,3.7763,3.781,3.7879,3.8005,3.8019,3.8061,3.8074,3.8085,3.8098,3.8169,3.8189,3.7979,3.7979,3.7978,0,0,3.7246,3.7289,3.7334,3.743,3.747,3.7546,3.7495,3.7576,3.7632,3.7611,3.7715,3.7745,3.7806,3.7924,3.7978,3.7952,3.8159,3.8097,3.8106,3.8112,3.8181,3.8201,3.8218,3.7985,3.7984,3.7983,0,0,3.7373,3.7411,3.75,3.7542,3.7604,3.7624,3.7645,3.7704,3.7723,3.7828,3.7815,3.7882,3.8006,3.8051,3.809,3.8237,3.8223,3.8259,3.8331,3.84,3.8416,3.8431,3.8485,3.8504,3.8271,3.8272,3.8272,0,3.7424,3.7536,3.7546,3.763,3.7673,3.7658,3.7748,3.7789,3.7871,3.7902,3.7872,3.8029,3.8069,3.8198,3.8234,3.8266,3.8292,3.8252,3.8413,3.8428,3.8442,3.8494,3.8514,3.8276,3.8275,3.8275,3.8274,0,3.7598,3.7676,3.774,3.7821,3.7871,3.7958,3.7982,3.8032,3.8033,3.8056,3.8165,3.8213,3.8292,3.8323,3.8324,3.8454,3.8436,3.841,3.8356,3.8466,3.8515,3.8535,3.8281,3.828,3.8279,3.8278,0,0,3.7753,3.7839,3.7862,3.79,3.7969,3.803,3.8117,3.8195,3.8239,3.8297,3.8371,3.8477,3.8454,3.8499,3.8505,3.8566,3.8681,3.8532,3.8533,3.8559,3.883,3.885,3.8872,3.8673,3.8676,3.8679,3.8825,0,3.7886,3.8038,3.8051,3.8189,3.8263,3.8251,3.8327,3.8378,3.8403,3.847,3.8498,3.8574,3.8536,3.8563,3.8623,3.8654,3.8736,3.8644,3.8743,3.8747,3.8729,3.8898,3.8919,3.9054,3.8844,3.8847,3.885,0,3.8062,3.8126,3.8271,3.8332,3.8363,3.8431,3.8505,3.8569,3.8628,3.8642,3.8693,3.8692,3.8783,3.8726,3.8853,3.879,3.8832,3.8854,3.886,3.887,3.8805,3.8914,3.9097,3.9118,3.8879,3.8877,3.8875,0,3.8162,3.8284,3.8388,3.842,3.8493,3.8542,3.8575,3.863,3.8677,3.8742,3.8773,3.8848,3.8889,3.8948,3.8968,3.8924,3.9095,3.9038,3.911,3.911,3.9147,3.9144,3.9341,3.9172,3.9172,3.9172,3.9171,0,3.831,3.84,3.8434,3.8497,3.8599,3.8613,3.8713,3.8744,3.8794,3.8864,3.8858,3.8925,3.8946,3.9017,3.9033,3.9137,3.9156,3.9171,3.9174,3.9172,3.917,3.92,3.9191,3.9177,3.9176,3.9175,3.9174,0,3.8439,3.8465,3.8577,3.8638,3.8656,3.8728,3.8781,3.8843,3.8868,3.8957,3.8979,3.9018,3.9101,3.9127,3.9227,3.9238,3.936,3.9354,3.934,3.9341,3.9412,3.9405,3.9634,3.9666,3.9476,3.9477,3.9479,0,3.8532,3.8601,3.867,3.8717,3.8752,3.8827,3.8876,3.8894,3.8945,3.9019,3.9073,3.9155,3.9222,3.9356,3.9394,3.9471,3.9468,3.9543,3.948,3.9476,3.9471,3.9467,3.9475,3.9555,3.9557,3.9559,3.956,0,3.8695,3.8705,3.8775,3.885,3.8908,3.8969,3.9026,3.9065,3.9092,3.915,3.9235,3.9287,3.939,3.9473,3.9552,3.9587,3.9579,3.958,3.9601,3.96,3.9589,3.9597,3.9374,3.9575,3.9573,3.9572,3.9571,3.9571,3.881,3.8872,3.8931,3.9009,3.9055,3.911,3.9172,3.9205,3.9276,3.9362,3.9368,3.9461,3.9521,3.9627,3.9666,3.974,3.9718,3.9748,3.9756,3.9763,3.977,3.9577,3.9754,3.9754,3.9754,3.9753,3.9753,0,3.8974,3.9012,3.9084,3.9166,3.9229,3.9216,3.928,3.9333,3.9415,3.9471,3.9538,3.9637,3.9718,3.9763,3.9844,3.9895,3.9893,3.9915,3.9912,3.9921,3.9784,3.9758,3.9915,3.9915,3.9915,3.9915,3.9915,3.9915,3.9067,3.9171,3.9189,3.9317,3.9354,3.9445,3.9483,3.9535,3.958,3.9691,3.9759,3.9787,3.984,3.9925,4.0,4.0011,4.0042,4.0067,4.0076,3.9947,3.993,3.9914,3.989,4.0073,4.0073,4.0207,4.0208,4.0209]},{"header":{"parameterUnit":"m.s-1","parameterCategory":1,"la1":30.2991,"la2":30.254,"lo1":-89.0895,"lo2":-89.0444,"dy":0.0017,"dx":0.0017,"nx":28,"ny":28,"refTime":"2023-10-12T21:00:00:Z","depth":0,"parameterNumber":3,"parameterNumberName":"V-component_of_WINDS"},"data":[0,0,0,0,0,0,0,0,0,0,0,0,0,0,0,0,0,0,0,0,0,0,0,0,0,0,0,0,0,0,0,0,0,0,0,0,0,0,0,0,0,0,0,0,0,0,0,0,0,0,0,0,0,0,0,0,0,0,0.4826,0.4826,0,0.4844,0.4844,0.4844,0.4821,0.482,0.4819,0.4818,0.4838,0.4839,0.484,0,0,0,0,0,0,0,0,0,0,0,0,0,0.4772,0.4773,0.4826,0.4826,0.4826,0.4844,0.4844,0.4844,0.4821,0.482,0.4819,0.4818,0.4837,0.4839,0.4841,0,0,0,0,0,0,0,0,0,0,0,0,0,0.4793,0.4773,0.4826,0.4817,0.4816,0.4844,0.4844,0.4844,0.4821,0.482,0.4819,0.4817,0.4837,0.4839,0.4841,0.4878,0,0,0.4847,0.4848,0,0,0,0,0,0,0,0,0.4792,0.4795,0.4818,0.4817,0.4817,0.4829,0.4832,0.4856,0.4822,0.4819,0.4818,0.4817,0.4836,0.4838,0.4844,0.4879,0.488,0.4847,0.4848,0.4849,0.485,0,0,0,0,0,0,0,0.479,0.4794,0.4833,0.4818,0.4818,0.4812,0.4813,0.4836,0.4835,0.4819,0.4818,0.482,0.4835,0.4842,0.4844,0.488,0.4847,0.4849,0.485,0.4851,0.4946,0.4947,0,0,0,0,0,0,0.479,0.4793,0.4832,0.4833,0.4801,0.4814,0.4816,0.4826,0.4834,0.4834,0.4821,0.4819,0.484,0.4842,0.4845,0.4889,0.4849,0.4851,0.4852,0.4944,0.4946,0.4947,0,0,0,0,0,0,0.4789,0.4794,0.4832,0.4813,0.4817,0.4816,0.4828,0.4827,0.4834,0.4836,0.4835,0.4829,0.4839,0.4842,0.487,0.4889,0.4852,0.4853,0.4943,0.4945,0.4947,0.4977,0,0,0,0,0,0,0.4787,0.4793,0.4808,0.4813,0.4818,0.4856,0.4829,0.4829,0.4837,0.4835,0.4842,0.4842,0.4838,0.4867,0.4872,0.4891,0.4855,0.4941,0.4944,0.4946,0.4974,0.498,0.4984,0,0,0,0,0,0.4786,0.4816,0.4809,0.4814,0.4836,0.4858,0.486,0.4854,0.4839,0.4853,0.4854,0.4842,0.4886,0.487,0.4875,0.4895,0.494,0.4943,0.4946,0.4972,0.4978,0.4984,0,0,0,0,0,0,0.4814,0.4817,0.4809,0.4842,0.485,0.4854,0.4872,0.4862,0.4874,0.4871,0.4863,0.4865,0.4894,0.4898,0.488,0.4931,0.491,0.4914,0.4928,0.4935,0.494,0.4938,0.4857,0,0,0,0,0,0.4824,0.4841,0.4843,0.4872,0.4876,0.4873,0.4882,0.4876,0.4884,0.4888,0.489,0.4899,0.4914,0.4924,0.4939,0.4974,0.4975,0.499,0.4995,0.5,0.5003,0.5021,0.5028,0.4957,0.4957,0.4957,0,0,0.4846,0.4849,0.486,0.4878,0.4883,0.49,0.4876,0.4896,0.4909,0.4891,0.4917,0.4919,0.4927,0.4958,0.4972,0.4962,0.5023,0.5003,0.5007,0.5008,0.5025,0.5032,0.5038,0.4959,0.4959,0.4959,0,0,0.4893,0.4898,0.4922,0.4927,0.4935,0.4932,0.4938,0.4943,0.4944,0.4969,0.4956,0.4971,0.4998,0.5004,0.5011,0.5058,0.5048,0.5063,0.509,0.5108,0.5113,0.5118,0.5135,0.5141,0.5067,0.5067,0.5067,0,0.4919,0.4944,0.4936,0.4956,0.4964,0.4947,0.4971,0.4977,0.4989,0.4995,0.4983,0.5015,0.502,0.5052,0.5063,0.5069,0.5075,0.5063,0.5113,0.5118,0.5122,0.5138,0.5144,0.5069,0.5069,0.5069,0.5068,0,0.4975,0.4993,0.5012,0.5023,0.5032,0.5055,0.5049,0.506,0.5053,0.5052,0.5077,0.5082,0.5096,0.5103,0.5097,0.5134,0.5127,0.5114,0.5093,0.5131,0.5145,0.5151,0.5072,0.5071,0.507,0.507,0,0,0.5043,0.5047,0.5054,0.5059,0.5065,0.5079,0.51,0.5113,0.5122,0.513,0.5148,0.517,0.5157,0.5165,0.5159,0.5174,0.5211,0.5159,0.5159,0.5168,0.5251,0.5261,0.5268,0.5203,0.5204,0.5205,0.525,0,0.509,0.5126,0.5118,0.5153,0.5169,0.5152,0.517,0.5176,0.5175,0.5188,0.5187,0.5202,0.5185,0.5189,0.5204,0.5203,0.5227,0.52,0.5219,0.522,0.5218,0.5275,0.5286,0.5328,0.5256,0.5257,0.5257,0,0.515,0.516,0.5196,0.5199,0.5205,0.5221,0.5232,0.5245,0.5251,0.5249,0.5256,0.5247,0.5267,0.5245,0.5273,0.5254,0.5261,0.5262,0.5264,0.5265,0.5241,0.5279,0.5341,0.5348,0.5266,0.5265,0.5265,0,0.5195,0.5217,0.5242,0.5246,0.5249,0.5261,0.5263,0.5267,0.5275,0.5285,0.529,0.5301,0.5308,0.5317,0.5311,0.5296,0.5339,0.5317,0.5338,0.5339,0.5349,0.5348,0.5414,0.5353,0.5353,0.5353,0.5353,0,0.5249,0.5272,0.5262,0.5277,0.5302,0.5292,0.5317,0.5317,0.532,0.5335,0.5321,0.5335,0.5326,0.5339,0.5335,0.5358,0.5361,0.536,0.5358,0.5361,0.5361,0.5366,0.5363,0.5355,0.5354,0.5354,0.5354,0,0.5304,0.5298,0.5323,0.5324,0.5324,0.5343,0.5343,0.5357,0.5354,0.5372,0.5376,0.5372,0.5386,0.5381,0.5397,0.5393,0.5423,0.5418,0.5421,0.542,0.5441,0.5439,0.5512,0.552,0.5454,0.5455,0.5456,0,0.5339,0.5356,0.5357,0.5366,0.5368,0.5382,0.539,0.538,0.5389,0.5395,0.5408,0.5421,0.5431,0.5455,0.5454,0.5465,0.546,0.5485,0.5462,0.5464,0.546,0.5459,0.5461,0.549,0.549,0.5491,0.5492,0,0.54,0.5396,0.5407,0.5417,0.5426,0.5434,0.544,0.5448,0.5439,0.5449,0.5463,0.5471,0.5486,0.5499,0.5509,0.5511,0.55,0.5499,0.5504,0.5507,0.5508,0.5508,0.5433,0.5497,0.5497,0.5496,0.5496,0.5496,0.5446,0.546,0.5463,0.5475,0.5479,0.5485,0.5497,0.5495,0.5507,0.5518,0.5511,0.5528,0.5532,0.5544,0.5547,0.556,0.555,0.5558,0.556,0.5562,0.5565,0.5506,0.5562,0.5561,0.5561,0.5561,0.5561,0,0.5507,0.5508,0.5519,0.5528,0.5537,0.5525,0.5531,0.554,0.5554,0.5558,0.5568,0.5584,0.5596,0.5594,0.5605,0.5616,0.5611,0.5619,0.5618,0.5619,0.5573,0.5567,0.5623,0.5623,0.5623,0.5623,0.5623,0.5623,0.554,0.5562,0.5558,0.5582,0.5582,0.5597,0.5602,0.5607,0.561,0.5628,0.5637,0.5636,0.5638,0.5649,0.5659,0.5658,0.5663,0.5673,0.567,0.5628,0.5622,0.5616,0.561,0.5674,0.5674,0.5715,0.5715,0.5715]}]]